Location: Chassagnes
(44.4047°N, 4.1657°E)
Time: 13:05:55
(UTC+00:00)

USA 308 - Pass Details

Date: 27 October 2020
Orbit: 571 x 578 km, 54.0° (Epoch: 23 November)

Event Time Altitude Azimuth Distance (km) Brightness Sun altitude
Rises 18:39:18 0° 306° (NW) 2,786 7.3 -22.0°
Reaches altitude 10° 18:41:36 10° 310° (NW) 1,884 6.2 -22.4°
Enters shadow 18:45:32 58° 9° (N) 669 3.1 -23.1°
